Orbital Elements at Epoch 2459200.5 (2020-Dec-17.0) TDB
Reference: JPL 20 (heliocentric ecliptic J2000)
Element | Value | Uncertainty (1-sigma) | Units |
e | .1086396710146525 | 4.7019e-08 | |
a | 3.15467586068052 | 2.6548e-08 | au |
q | 2.811952913018323 | 1.5787e-07 | au |
i | 2.781026063212584 | 3.9716e-06 | deg |
node | 110.5182841429804 | 0.00011489 | deg |
peri | 133.8232416086934 | 0.00011768 | deg |
M | 3.251448360697904 | 2.4173e-05 | deg |
tp | 2459182.015619452512 (2020-Nov-28.51561945) | 0.00013744 | TDB |
period | 2046.588553436928 5.60 | 2.5835e-05 7.073e-08 | d yr |
n | .1759024789791948 | 2.2205e-09 | deg/d |
Q | 3.497398808342717 | 2.9432e-08 | au |
|
| | Orbit Determination Parameters
Additional Information
|